Location: The Stocker AstroScience Center
(25.7579°N, 80.3725°W)
Time: 07:36:39
(UTC-05:00)

ISS - All Passes

Search period start: 14 February 2016 00:00
Search period end: 24 February 2016 00:00
Orbit: 398 x 407 km, 51.6° (Epoch: 14 February)

Date Brightness Start Highest point End Pass type
(mag) Time Alt. Az. Time Alt. Az. Time Alt. Az.
14 Feb - 13:28:53 10° WSW 13:31:58 40° NW 13:35:03 10° NNE daylight
14 Feb - 21:38:57 10° NNW 21:42:04 47° NE 21:45:12 10° ESE night (unlit)
15 Feb - 12:35:57 10° SW 12:39:11 75° SE 12:42:26 10° NE daylight
15 Feb - 20:46:40 10° N 20:49:12 21° NE 20:51:44 10° E night (unlit)
15 Feb - 22:23:10 10° W 22:25:30 18° SW 22:27:50 10° S night (unlit)
16 Feb - 11:43:38 10° S 11:46:27 28° SE 11:49:18 10° ENE daylight
16 Feb - 13:20:52 10° W 13:22:53 15° NW 13:24:54 10° N daylight
16 Feb - 19:55:31 10° NNE 19:56:13 10° NE 19:56:54 10° NE visible
16 Feb - 21:29:41 10° NW 21:32:48 46° SW 21:35:54 10° SSE night (unlit)
17 Feb - 10:52:29 10° SSE 10:53:46 12° SE 10:55:03 10° E daylight
17 Feb - 12:26:58 10° WSW 12:29:55 31° NW 12:32:52 10° NNE daylight
17 Feb - 20:36:47 10° NW 20:39:59 63° NE 20:43:11 10° SE visible
18 Feb - 11:33:47 10° SW 11:37:02 82° NW 11:40:17 10° NE daylight
18 Feb - 19:44:18 10° NNW 19:47:04 26° NE 19:49:49 10° ESE visible
18 Feb - 21:21:25 10° W 21:23:16 14° SW 21:25:08 10° SSW night (unlit)
19 Feb - 10:41:10 10° SSW 10:44:11 36° SE 10:47:13 10° ENE daylight
19 Feb - 12:19:10 10° WNW 12:20:42 13° NW 12:22:13 10° NNW daylight
19 Feb - 18:52:28 10° NNE 18:54:01 13° NE 18:55:32 10° ENE visible
19 Feb - 20:27:31 10° WNW 20:30:30 34° SW 20:33:28 10° SSE visible
20 Feb - 09:49:25 10° SSE 09:51:24 15° SE 09:53:22 10° E daylight
20 Feb - 11:24:50 10° WSW 11:27:37 25° NW 11:30:23 10° NNE daylight
20 Feb - 19:34:24 10° NW 19:37:38 84° NE 19:40:51 10° SE visible
21 Feb - 10:31:23 10° SW 10:34:36 62° NW 10:37:50 10° NE daylight
21 Feb - 18:41:42 10° NNW 18:44:38 32° NE 18:47:35 10° ESE visible
21 Feb - 20:19:40 10° WSW 20:20:46 11° SW 20:21:53 10° SW visible
22 Feb - 09:38:31 10° SSW 09:41:40 47° SE 09:44:48 10° NE daylight
22 Feb - 11:17:34 10° NW 11:18:15 10° NW 11:18:56 10° NNW daylight
22 Feb - 17:49:31 10° N 17:51:32 15° NE 17:53:33 10° E daylight
22 Feb - 19:25:09 10° WNW 19:27:56 27° SW 19:30:43 10° S visible
23 Feb - 08:46:22 10° S 08:48:45 19° SE 08:51:09 10° ENE daylight
23 Feb - 10:22:30 10° W 10:25:03 21° NW 10:27:36 10° N daylight
23 Feb - 18:31:47 10° NW 18:35:00 74° SW 18:38:12 10° SE daylight
